CSS (TIANHE-1)
1 48274U 21035A   25290.62306409  .00047068  00000-0  56508-3 0  9996
2 48274  41.4666 357.6657 0011336 231.3071 128.6754 15.59994995255262
TUBIN
1 48900U 21059X   25290.86245536  .00165563  00000-0  97455-3 0  9994
2 48900  97.6734 112.0836 0001807 109.1571 250.9890 15.77737076240447
LEDSAT
1 49069U 21073D   25287.95720868  .11134366  25314-5  40586-3 0  9991
2 49069  97.3489  17.4861 0013151 272.2565  87.7231 16.42992651231488
CUTE
1 49263U 21088D   25290.77004359  .00035920  00000-0  55779-3 0  9991
2 49263  97.4403  11.3047 0007041 115.4907 244.7075 15.53860740224598
TeikyoSat 4
1 49396U 21102B   25290.81431782  .00003099  00000-0  20352-3 0  9995
2 49396  97.3985 324.5033 0013743  52.3326 307.9147 15.08262014216170
Z-Sat
1 49399U 21102E   25290.80645132  .00007443  00000-0  39310-3 0  9994
2 49399  97.3673 328.4359 0017961  17.7497 342.4360 15.15653722216697
KOSEN 1
1 49402U 21102H   25290.06592087  .00013840  00000-0  60165-3 0  9997
2 49402  97.3569 332.1608 0014665 351.9273   8.1725 15.22291371216976
HO-113
1 50466U 21131B   25290.82537399  .00000894  00000-0  29200-3 0  9990
2 50466  98.5073  19.5287 0005278 104.6641 255.5133 14.40995175200204
SNUGLITE 2
1 52899U 22065F   25290.81545558  .00002105  00000-0  41423-3 0  9992
2 52899  98.1879  71.6904 0008546  68.5150 291.6963 14.63596904175536
UmKA 1 (RS40S)
1 57172U 23091G   25290.63149954  .00009909  00000-0  50293-3 0  9995
2 57172  97.5436 345.3581 0012565 240.7468 119.2509 15.17052155127185
CubeBel-2 (EU11S)
1 57175U 23091K   25290.80985397  .00017630  00000-0  77083-3 0  9992
2 57175  97.5433 347.5599 0010112 243.8411 116.1785 15.22098013127345
ENSO
1 58470U 23185J   25286.99676613  .00315332  00000-0  14127-2 0  9997
2 58470  97.3538   7.7888 0004942 287.2111  72.8618 15.83344704104804
SONATE-2
1 59112U 24043Q   25290.81857639  .00037498  00000-0  90183-3 0  9991
2 59112  97.5290  65.1691 0009756  11.0657 349.0802 15.41166834 90359
MO-122
1 60209U 24125G   25290.85684966  .00042531  00000-0  99600-3 0  9993
2 60209  97.2612 141.3513 0017433  32.9949 327.2382 15.41829971 71987
GRBBeta
1 60237U 24128C   25290.65135929  .00005748  00000-0  41476-3 0  9992
2 60237  61.9925 345.6482 0057000  84.7111 276.0481 15.03965224 69750
Curium One
1 60242U 24128H   25290.63810560  .00011019  00000-0  71019-3 0  9991
2 60242  61.9820 341.7990 0056820  81.1651 279.5870 15.07440526 69825
ROBUSTA-3A
1 60243U 24128J   25290.55251611  .00010402  00000-0  68254-3 0  9991
2 60243  61.9894 343.3994 0056380  78.6873 282.0548 15.06852056 69798
CatSat
1 60246U 24125J   25290.84933663  .00043175  00000-0  12168-2 0  9992
2 60246  97.2429 139.0104 0037518 351.8069   8.2557 15.35582351 69939
HYPERVIEW-1G (RS66S)
1 61772U 24199AP  25290.71716910  .00046935  00000-0  10846-2 0  9996
2 61772  97.3298 159.6674 0014035  84.5056 275.7792 15.42264664 96961
AO-123
1 61781U 24199AY  25290.73110336  .00012454  00000-0  42391-3 0  9998
2 61781  97.3326 156.8376 0017070  94.7274 265.5916 15.30411809 96774
ZIMSAT 2
1 61783U 24199BA  25290.76538856  .00129569  00000-0  19172-2 0  9990
2 61783  97.3231 161.7932 0012730  78.6738 281.5946 15.54753678100268
HADES-R (SO-124)
1 62690U 25009CK  25290.27466623  .00102581  00000-0  23270-2 0  9996
2 62690  97.3979  11.4626 0001765 316.7565  43.3544 15.42677059 42039
HYDRA-T
1 62692U 25009CM  25290.16212227  .00103959  00000-0  23085-2 0  9999
2 62692  97.3977  11.4597 0001851 302.2289  57.8779 15.43308014 42027
JINJUSat 1B
1 63210U 25052A   25290.69928193  .00022710  00000-0  93357-3 0  9993
2 63210  97.4229 183.3038 0002515 187.2226 172.8976 15.24176061 33047
NUSHSAT 1
1 63211U 25052B   25290.66038250  .00025923  00000-0  10439-2 0  9995
2 63211  97.4216 183.3256 0002165 193.8082 166.3097 15.24843979 33041
TEVEL2-4
1 63213U 25052D   25290.63997310  .00024621  00000-0  10065-2 0  9994
2 63213  97.4135 182.9667 0000871 205.0804 155.0391 15.24349461 33032
TEVEL2-5
1 63214U 25052E   25290.64321715  .00025240  00000-0  10331-2 0  9990
2 63214  97.4136 182.9632 0000897 206.0833 154.0359 15.24301943 33033
TEVEL2-6
1 63215U 25052F   25290.64880269  .00024328  00000-0  99736-3 0  9998
2 63215  97.4136 182.9592 0000887 213.2244 146.8938 15.24256100 33030
TEVEL2-1
1 63217U 25052H   25290.68045668  .00023511  00000-0  97198-3 0  9993
2 63217  97.4109 182.8464 0000765 272.7675  87.3475 15.23979701 33035
TEVEL2-3
1 63218U 25052J   25290.61462677  .00023135  00000-0  95629-3 0  9999
2 63218  97.4110 182.7845 0000805 276.4743  83.6402 15.23988801 33021
TEVEL2-2
1 63219U 25052K   25290.68122552  .00023576  00000-0  97473-3 0  9990
2 63219  97.4109 182.8472 0000785 273.9103  86.2044 15.23977524 33038
TEVEL2-9
1 63237U 25052AD  25290.65752640  .00022994  00000-0  98943-3 0  9990
2 63237  97.4174 182.6036 0005200 288.3962  71.6708 15.22617240 33001
TEVEL2-7
1 63238U 25052AE  25290.66664323  .00022133  00000-0  95573-3 0  9993
2 63238  97.4175 182.5967 0005269 288.5368  71.5295 15.22505721 33002
TEVEL2-8
1 63239U 25052AF  25290.67127286  .00022236  00000-0  96094-3 0  9990
2 63239  97.4174 182.5885 0005273 288.8773  71.1892 15.22477235 33006
HYDRA-W
1 63490U 25052BL  25290.50769331  .00069610  00000-0  21944-2 0  9992
2 63490  97.4113 183.8655 0005703 279.1532  80.9064 15.32611565 33085
HADES-ICM (SO-125)
1 63492U 25052BN  25290.64449852  .00062118  00000-0  20268-2 0  9996
2 63492  97.4121 183.8537 0006432 284.7468  75.3060 15.31536967 33091
